Location: Devore Heights
(34.2372°N, 117.4156°W)
Time: 14:54:35
(UTC+00:00)

Transit 4A - All Passes

Search period start: 13 September 2024 00:00
Search period end: 23 September 2024 00:00
Orbit: 866 x 976 km, 66.8° (Epoch: 12 September)

Date Brightness Start Highest point End Pass type
(mag) Time Alt. Az. Time Alt. Az. Time Alt. Az.
13 Sep - 09:35:34 10° SSE 09:39:58 23° ESE 09:44:24 10° NE visible
13 Sep - 11:20:20 10° SW 11:25:52 45° WNW 11:31:33 10° NNE visible
13 Sep - 18:41:30 10° N 18:45:14 16° NE 18:49:00 10° E daylight
13 Sep - 20:26:00 10° NNW 20:32:18 85° WSW 20:38:40 10° SSE daylight
13 Sep - 22:17:18 10° W 22:17:44 10° W 22:18:09 10° WSW daylight
14 Sep - 09:43:30 10° S 09:48:43 36° ESE 09:54:01 10° NE visible
14 Sep - 11:29:56 10° WSW 11:35:00 30° NW 11:40:11 10° N visible
14 Sep - 18:49:40 10° N 18:54:33 23° NE 18:59:28 10° ESE daylight
14 Sep - 20:35:05 10° NW 20:41:13 56° WSW 20:47:24 10° S daylight
15 Sep - 09:51:53 10° S 09:57:32 56° ESE 10:03:19 10° NE visible
15 Sep - 11:39:56 10° W 11:44:13 21° NW 11:48:37 10° N visible
15 Sep - 18:58:09 10° N 19:03:46 33° NE 19:09:26 10° ESE daylight
15 Sep - 20:44:23 10° NW 20:50:04 37° WSW 20:55:49 10° S daylight
16 Sep - 10:00:38 10° SSW 10:06:26 87° ESE 10:12:25 10° NNE visible
16 Sep - 11:50:32 10° WNW 11:53:34 14° NW 11:56:38 10° NNW visible
16 Sep - 19:06:49 10° NNW 19:12:53 49° ENE 19:19:02 10° SE daylight
16 Sep - 20:53:59 10° NW 20:58:51 24° WSW 21:03:46 10° SSW daylight
17 Sep - 08:26:22 10° SE 08:29:46 16° ESE 08:33:11 10° ENE visible
17 Sep - 10:09:41 10° SW 10:15:25 61° WNW 10:21:19 10° NNE visible
17 Sep - 17:32:07 10° NNE 17:34:34 12° NE 17:37:01 10° ENE daylight
17 Sep - 19:15:39 10° NNW 19:21:56 73° ENE 19:28:18 10° SSE daylight
17 Sep - 21:04:11 10° WNW 21:07:35 15° WSW 21:10:58 10° SW daylight
18 Sep - 08:33:47 10° SSE 08:38:28 26° ESE 08:43:14 10° NE visible
18 Sep - 10:19:03 10° SW 10:24:30 40° WNW 10:30:04 10° NNE visible
18 Sep - 17:39:48 10° N 17:43:57 18° NE 17:48:07 10° E daylight
18 Sep - 19:24:36 10° NNW 19:30:54 76° WSW 19:37:15 10° SSE daylight
19 Sep - 08:41:52 10° S 08:47:15 41° ESE 08:52:45 10° NE visible
19 Sep - 10:28:45 10° WSW 10:33:39 27° NW 10:38:39 10° N visible
19 Sep - 17:48:05 10° N 17:53:14 26° NE 17:58:25 10° ESE daylight
19 Sep - 19:33:45 10° NW 19:39:47 50° WSW 19:45:53 10° S daylight
20 Sep - 08:50:22 10° SSW 08:56:05 64° ESE 09:01:58 10° NNE visible
20 Sep - 10:38:54 10° W 10:42:54 19° NW 10:46:59 10° N visible
20 Sep - 17:56:38 10° N 18:02:25 37° ENE 18:08:15 10° ESE daylight
20 Sep - 19:43:07 10° NW 19:48:37 32° WSW 19:54:10 10° SSW daylight
21 Sep - 07:18:12 10° ESE 07:19:35 11° E 07:20:58 10° E night (unlit)
21 Sep - 08:59:12 10° SSW 09:05:01 83° WNW 09:11:00 10° NNE visible
21 Sep - 10:49:46 10° WNW 10:52:16 13° NW 10:54:48 10° NNW visible
21 Sep - 18:05:20 10° NNW 18:11:31 55° ENE 18:17:44 10° SE daylight
21 Sep - 19:52:50 10° WNW 19:57:23 21° WSW 20:01:57 10° SSW daylight
22 Sep - 07:24:23 10° SSE 07:28:15 19° ESE 07:32:11 10° ENE night (unlit)
22 Sep - 09:08:20 10° SW 09:14:00 54° WNW 09:19:52 10° NNE visible
22 Sep - 16:30:11 10° NNE 16:33:17 14° NE 16:36:23 10° ENE daylight
22 Sep - 18:14:12 10° NNW 18:20:31 82° ENE 18:26:55 10° SSE daylight
22 Sep - 20:03:24 10° WNW 20:06:04 13° WSW 20:08:46 10° SW daylight
